When you browse on this site, cookies collect data to enhance your experience and personalize the content and advertising you see.
Visit our Privacy Policy to learn more. By continuing to use the site, you agree to this use of cookies and data.
  • In United Kingdom
  • List of Countries
  • For 7 days
  • Water Temperature
  • Satellite Maps
  • Weather Map
  • Weather Widgets
  • user-avatar
    Login

    Hourly Weather Konakry

    Today, 21 February, Thursday

    Time Temperature Precipitation Wind Pressure Humidity
    00:00 +26°C° 0 mm 1 mps 756 mmHg 76%
    01:00 +25°C° 0 mm 1 mps 756 mmHg 77%
    02:00 +25°C° 0 mm 1 mps 756 mmHg 78%
    03:00 +25°C° 0 mm 1 mps 756 mmHg 78%
    04:00 +25°C° 0 mm 1 mps 756 mmHg 78%
    05:00 +24°C° 0 mm 1 mps 755 mmHg 78%
    06:00 +26°C° 0 mm 1 mps 756 mmHg 71%
    07:00 +27°C° 0 mm 1 mps 756 mmHg 65%
    08:00 +28°C° 0 mm 1 mps 757 mmHg 59%
    09:00 +30°C° 0 mm 1 mps 757 mmHg 52%
    10:00 +32°C° 0 mm 1 mps 757 mmHg 44%
    11:00 +34°C° 0 mm 1 mps 757 mmHg 37%
    12:00 +35°C° 0 mm 2 mps 756 mmHg 40%
    13:00 +34°C° 0 mm 3 mps 756 mmHg 43%
    14:00 +33°C° 0 mm 4 mps 755 mmHg 46%
    15:00 +33°C° 0 mm 4 mps 755 mmHg 48%
    16:00 +32°C° 0 mm 4 mps 755 mmHg 51%
    17:00 +30°C° 0 mm 3 mps 755 mmHg 54%
    18:00 +30°C° 0 mm 3 mps 755 mmHg 57%
    19:00 +29°C° 0 mm 2 mps 756 mmHg 61%
    20:00 +28°C° 0 mm 2 mps 756 mmHg 64%
    21:00 +28°C° 0 mm 2 mps 756 mmHg 65%
    22:00 +28°C° 0 mm 2 mps 757 mmHg 65%
    23:00 +27°C° 0 mm 1 mps 757 mmHg 66%

    Tomorrow, 22 February, Friday

    Time Temperature Precipitation Wind Pressure Humidity
    00:00 +27°C° 0 mm 1 mps 757 mmHg 65%
    01:00 +27°C° 0 mm 1 mps 756 mmHg 65%
    02:00 +25°C° 0 mm 0 mps 756 mmHg 64%
    03:00 +27°C° 0 mm 1 mps 756 mmHg 65%
    04:00 +27°C° 0 mm 1 mps 756 mmHg 65%
    05:00 +27°C° 0 mm 2 mps 756 mmHg 65%
    06:00 +27°C° 0 mm 1 mps 757 mmHg 62%
    07:00 +28°C° 0 mm 1 mps 757 mmHg 59%
    08:00 +29°C° 0 mm 1 mps 758 mmHg 56%
    09:00 +31°C° 0 mm 1 mps 758 mmHg 48%
    10:00 +34°C° 0 mm 2 mps 757 mmHg 41%
    11:00 +35°C° 0 mm 2 mps 757 mmHg 33%
    12:00 +36°C° 0 mm 3 mps 756 mmHg 33%
    13:00 +36°C° 0 mm 4 mps 755 mmHg 32%
    14:00 +37°C° 0 mm 5 mps 754 mmHg 32%
    15:00 +35°C° 0 mm 5 mps 754 mmHg 36%
    16:00 +33°C° 0 mm 4 mps 754 mmHg 40%
    17:00 +32°C° 0 mm 4 mps 753 mmHg 44%
    18:00 +30°C° 0 mm 3 mps 754 mmHg 49%
    19:00 +29°C° 0 mm 3 mps 755 mmHg 54%
    20:00 +28°C° 0 mm 2 mps 755 mmHg 60%
    21:00 +27°C° 0 mm 2 mps 756 mmHg 61%
    22:00 +27°C° 0 mm 2 mps 756 mmHg 62%
    23:00 +26°C° 0 mm 2 mps 756 mmHg 63%

    Day after tomorrow, 23 February, Saturday

    Time Temperature Precipitation Wind Pressure Humidity
    00:00 +26°C° 0 mm 2 mps 756 mmHg 63%
    01:00 +26°C° 0 mm 2 mps 755 mmHg 63%
    02:00 +25°C° 0 mm 2 mps 755 mmHg 63%
    03:00 +25°C° 0 mm 2 mps 755 mmHg 62%
    04:00 +24°C° 0 mm 2 mps 755 mmHg 61%
    05:00 +24°C° 0 mm 1 mps 755 mmHg 60%
    06:00 +25°C° 0 mm 1 mps 756 mmHg 55%
    07:00 +27°C° 0 mm 1 mps 756 mmHg 49%
    08:00 +28°C° 0 mm 1 mps 757 mmHg 44%
    09:00 +31°C° 0 mm 1 mps 756 mmHg 37%
    10:00 +34°C° 0 mm 2 mps 756 mmHg 31%
    11:00 +37°C° 0 mm 2 mps 756 mmHg 24%
    12:00 +37°C° 0 mm 3 mps 755 mmHg 26%
    13:00 +37°C° 0 mm 4 mps 754 mmHg 27%
    14:00 +39°C° 0 mm 5 mps 753 mmHg 29%
    15:00 +36°C° 0 mm 5 mps 752 mmHg 37%
    16:00 +34°C° 0 mm 5 mps 752 mmHg 45%
    17:00 +32°C° 0 mm 5 mps 752 mmHg 53%
    18:00 +30°C° 0 mm 4 mps 752 mmHg 58%
    19:00 +29°C° 0 mm 3 mps 753 mmHg 64%
    20:00 +28°C° 0 mm 2 mps 754 mmHg 70%
    21:00 +27°C° 0 mm 2 mps 754 mmHg 71%
    22:00 +27°C° 0 mm 2 mps 754 mmHg 72%
    23:00 +26°C° 0 mm 2 mps 755 mmHg 74%

    24 February, Sunday

    Time Temperature Precipitation Wind Pressure Humidity
    00:00 +26°C° 0 mm 2 mps 754 mmHg 75%
    01:00 +25°C° 0 mm 1 mps 754 mmHg 76%
    02:00 +25°C° 0 mm 1 mps 754 mmHg 77%
    03:00 +25°C° 0 mm 1 mps 754 mmHg 78%
    04:00 +24°C° 0 mm 1 mps 754 mmHg 79%
    05:00 +24°C° 0 mm 1 mps 754 mmHg 80%
    06:00 +25°C° 0 mm 1 mps 754 mmHg 74%
    07:00 +24°C° 0 mm 0 mps 755 mmHg 68%
    08:00 +26°C° 0 mm 0 mps 755 mmHg 62%
    09:00 +30°C° 0 mm 1 mps 755 mmHg 54%
    10:00 +32°C° 0 mm 1 mps 755 mmHg 46%
    11:00 +35°C° 0 mm 2 mps 755 mmHg 38%
    12:00 +35°C° 0 mm 3 mps 754 mmHg 40%
    13:00 +35°C° 0 mm 4 mps 753 mmHg 41%
    14:00 +35°C° 0 mm 5 mps 752 mmHg 42%
    15:00 +34°C° 0 mm 5 mps 752 mmHg 47%
    16:00 +32°C° 0 mm 5 mps 752 mmHg 52%
    17:00 +30°C° 0 mm 5 mps 752 mmHg 58%
    18:00 +29°C° 0 mm 4 mps 753 mmHg 63%
    19:00 +28°C° 0 mm 3 mps 753 mmHg 69%
    20:00 +27°C° 0 mm 3 mps 754 mmHg 75%
    21:00 +27°C° 0 mm 2 mps 754 mmHg 77%
    22:00 +27°C° 0 mm 2 mps 754 mmHg 79%
    23:00 +26°C° 0 mm 2 mps 755 mmHg 81%

    25 February, Monday

    Time Temperature Precipitation Wind Pressure Humidity
    00:00 +26°C° 0 mm 2 mps 754 mmHg 83%
    01:00 +25°C° 0 mm 2 mps 754 mmHg 84%
    02:00 +25°C° 0 mm 2 mps 754 mmHg 86%
    03:00 +25°C° 0 mm 2 mps 754 mmHg 87%
    04:00 +24°C° 0 mm 1 mps 754 mmHg 88%
    05:00 +24°C° 0 mm 1 mps 754 mmHg 89%
    06:00 +25°C° 0 mm 1 mps 754 mmHg 83%
    07:00 +26°C° 0 mm 1 mps 755 mmHg 78%
    08:00 +27°C° 0 mm 1 mps 755 mmHg 72%
    09:00 +29°C° 0 mm 1 mps 755 mmHg 61%
    10:00 +31°C° 0 mm 2 mps 755 mmHg 50%
    11:00 +34°C° 0 mm 2 mps 755 mmHg 39%
    12:00 +34°C° 0 mm 3 mps 754 mmHg 39%
    13:00 +35°C° 0 mm 4 mps 753 mmHg 39%
    14:00 +35°C° 0 mm 5 mps 752 mmHg 39%
    15:00 +34°C° 0 mm 5 mps 752 mmHg 43%
    16:00 +32°C° 0 mm 5 mps 752 mmHg 47%
    17:00 +30°C° 0 mm 4 mps 752 mmHg 51%
    18:00 +29°C° 0 mm 4 mps 753 mmHg 58%
    19:00 +28°C° 0 mm 3 mps 753 mmHg 64%
    20:00 +27°C° 0 mm 3 mps 754 mmHg 71%
    21:00 +27°C° 0 mm 2 mps 754 mmHg 73%
    22:00 +26°C° 0 mm 2 mps 754 mmHg 75%
    23:00 +26°C° 0 mm 2 mps 754 mmHg 76%

    26 February, Tuesday

    Time Temperature Precipitation Wind Pressure Humidity
    00:00 +26°C° 0 mm 2 mps 754 mmHg 77%
    01:00 +25°C° 0 mm 1 mps 753 mmHg 78%
    02:00 +25°C° 0 mm 1 mps 753 mmHg 79%
    03:00 +25°C° 0 mm 1 mps 753 mmHg 80%
    04:00 +24°C° 0 mm 1 mps 753 mmHg 81%
    05:00 +24°C° 0 mm 1 mps 754 mmHg 82%
    06:00 +25°C° 0 mm 1 mps 754 mmHg 77%
    07:00 +26°C° 0 mm 1 mps 755 mmHg 72%
    08:00 +27°C° 0 mm 1 mps 755 mmHg 67%
    09:00 +29°C° 0 mm 1 mps 755 mmHg 57%
    10:00 +32°C° 0 mm 1 mps 755 mmHg 46%
    11:00 +34°C° 0 mm 1 mps 755 mmHg 36%
    12:00 +35°C° 0 mm 2 mps 754 mmHg 35%
    13:00 +35°C° 0 mm 3 mps 753 mmHg 35%
    14:00 +35°C° 0 mm 5 mps 752 mmHg 35%
    15:00 +34°C° 0 mm 5 mps 752 mmHg 37%
    16:00 +33°C° 0 mm 4 mps 752 mmHg 40%
    17:00 +32°C° 0 mm 4 mps 752 mmHg 43%
    18:00 +30°C° 0 mm 4 mps 753 mmHg 50%
    19:00 +28°C° 0 mm 3 mps 754 mmHg 58%
    20:00 +27°C° 0 mm 3 mps 754 mmHg 65%
    21:00 +27°C° 0 mm 2 mps 755 mmHg 67%
    22:00 +27°C° 0 mm 2 mps 755 mmHg 69%
    23:00 +26°C° 0 mm 2 mps 755 mmHg 72%
    Show more